Tracking 27111 objects as of 28-Mar-2023
HD Live streaming from Space Station
objects crossing your sky now

FENGYUN 2G DEB

Track FENGYUN 2G DEB now!


NORAD ID: 43646
Int'l Code: 2014-090D
Perigee: 35,016.7 km
Apogee: 36,542.7 km
Inclination: 4.6 °
Period: 1,435.4 minutes
Semi major axis: 42150 km
RCS: Unknown
Launch date: December 31, 2014
Source: People's Republic of China (PRC)
Launch site: Xichang Space Center, China (XSC)

Note: This is SATELLITE DEBRIS
Your satellite tracking list
Your tracking list is empty




NASA's NSSDC Master Catalog

Two Line Element Set (TLE):
1 43646U 14090D   23085.47158916 -.00000289  00000-0  00000-0 0  9996
2 43646   4.5712  82.3797 0181024 246.9271 111.3571  1.00321942 29885
Source of the keplerian elements: AFSPC